Regional Weather Roundup
Issued by NWS

Home | Current Version | Previous Version | Text Only | Print | Product List | Glossary Off
Versions: 1 2 3 4 5 6 7 8 9 10 11 12 13 14 15 16 17 18 19 20 21 22 23 24 25 26 27 28 29 30 31 32 33 34 35 36 37 38 39 40 41 42 43 44 45 46 47 48 49 50

000
ASUS43 KLOT 281110
RWRIL

ILLINOIS REGIONAL WEATHER ROUNDUP
NATIONAL WEATHER SERVICE CHICAGO/ROMEOVILLE IL
500 AM CST SAT FEB 28 2015

NOTE: "FAIR" INDICATES FEW OR NO CLOUDS BELOW 12,000 FEET WITH NO
SIGNIFICANT WEATHER AND/OR OBSTRUCTIONS TO VISIBILITY.

* THESE STATIONS ARE NOT UNDER NWS QUALITY CONTROL. THEY ALSO MAY NOT
  REPORT WEATHER SUCH AS PRECIPITATION OR FOG.

ILZ001-002-007-009-015-016-024-281200-
NORTHWEST ILLINOIS

CITY           SKY/WX    TMP DP  RH WIND       PRES   REMARKS
MOLINE         PTCLDY   -16 -24  67 CALM      30.66S
STERLING*      PTCLDY   -15 -17  91 CALM      30.66R
SAVANNA*       MOCLDY   -19 -26  71 CALM      30.68R
$$

ILZ003-004-008-010-011-017-018-281200-
NORTH CENTRAL ILLINOIS

CITY           SKY/WX    TMP DP  RH WIND       PRES   REMARKS
ROCKFORD       MOCLDY   -14 -20  74 CALM      30.68R
FREEPORT*      MOCLDY   -16 -21  81 CALM      30.66R
ROCHELLE*      MOCLDY   -20 -25  77 CALM      30.67R
DE KALB*       PTCLDY    -6 -10  83 S3        30.65R
PERU*          PTCLDY    -6 -11  80 E3        30.68S
$$

ILZ005-006-012>014-019>023-281200-
NORTHEAST ILLINOIS

CITY           SKY/WX    TMP DP  RH WIND       PRES   REMARKS
CHICAGO-OHARE  PTCLDY    -8 -13  78 CALM      30.67R
CHICAGO-MIDWAY PTCLDY     2  -5  72 CALM      30.69R
AURORA         MOCLDY   -15 -24  64 CALM      30.68R
LANSING*       PTCLDY   -11 -16  79 CALM      30.70R
JOLIET*        HAZE     -11 -15  81 CALM      30.70R VSB<1/4
WAUKEGAN       PTCLDY    -6  -9  86 SW5       30.66R WCI -17
DUPAGE AIRPORT PTCLDY   -12 -17  78 CALM      30.66R
KANKAKEE*      PTCLDY    -4  -8  84 CALM      30.70S
WHEELING       PTCLDY   -12 -15  86 SE3       30.70R
MORRIS*        PTCLDY   -10 -13  84 CALM      30.69R
ROMEOVILLE*    PTCLDY    -6 -10  81 SE3       30.69R
NORTHERLY ISL    N/A      6  -2  69 S2          N/A
$$

LMZ740>746-281200-
SOUTHERN LAKE MICHIGAN

STATION/POSITION SKY/WX   TEMP    WIND        PRES    VSBY  WAVE
                          AIR SEA DIR/SP/G                  HT/PER
                          (F)     (DEG/KT/KT) (MB)    (MI)  (FT/S)
WAUKEGAN HARBOR             2     260/  2/  5   N/A
HARRISON CRIB               9     270/  5/  7   N/A
BURNHAM HARBOR              6      CALM  /  5   N/A
CALUMET HARBOR              3     200/  4/  5 1037.9R
MICHIGAN CITY               2     150/  4/  5   N/A
$$

ILZ025>027-034>036-040-047-049-050-058-095>099-281200-
WEST-CENTRAL ILLINOIS

CITY           SKY/WX    TMP DP  RH WIND       PRES   REMARKS
QUINCY         CLOUDY     7  -2  66 E7        30.62R WCI  -5
GALESBURG*     CLOUDY     0  -3  85 E5        30.64S WCI -10
MACOMB*        CLOUDY    -1  -5  84 CALM      30.67S
JACKSONVILLE*  PTCLDY     7   1  76 E6        30.65S WCI  -3
PITTSFIELD*    MOCLDY    11   4  72 E3        30.63F
$$

ILZ028>032-037-038-041>044-048-051>054-059>061-281200-
CENTRAL ILLINOIS

CITY           SKY/WX    TMP DP  RH WIND       PRES   REMARKS
PONTIAC        MOCLDY    -5  -8  84 CALM      30.70R
BLOOMINGTON    PTCLDY     3  -3  76 CALM      30.66R
DECATUR        CLOUDY     8   1  73 E5        30.67R WCI   0
PEORIA         CLOUDY     3  -3  76 E3        30.68R
LACON*         PTCLDY    -7 -12  81 CALM      30.69R
LINCOLN*       MOCLDY    11   4  73 SE6       30.71R WCI   2
SPRINGFIELD    CLOUDY     8  -1  66 E6        30.67R WCI  -2
TAYLORVILLE    CLOUDY    10   1  67 E5        30.66R WCI   2
$$

ILZ033-039-045-046-055>057-062-063-281200-
EAST-CENTRAL ILLINOIS

CITY           SKY/WX    TMP DP  RH WIND       PRES   REMARKS
CHAMPAIGN      CLOUDY     8   0  69 E6        30.66R WCI  -2
DANVILLE*      CLOUDY     7   0  75 E3        30.66R
RANTOUL*       CLOUDY    10   4  74 E5        30.67R WCI   2
MATTOON        CLOUDY    10   1  67 CALM      30.66R
PARIS*         MOCLDY     7   1  74 CALM      30.68S
$$

ILZ079-100>102-281200-
SOUTHWEST ILLINOIS

CITY           SKY/WX    TMP DP  RH WIND       PRES   REMARKS
ALTON          CLOUDY    13   0  56 E6        30.67R WCI   3
BELLEVILLE     CLOUDY    15   6  66 E6        30.65R WCI   7
CAHOKIA*       CLOUDY    17   6  62 NE6       30.65S WCI   9
SPARTA*        CLOUDY    17   7  66 E7        30.65R WCI   7
$$

ILZ064>066-069>071-074>076-080>082-084>086-088>090-092>094-281200-
SOUTH-CENTRAL ILLINOIS

CITY           SKY/WX    TMP DP  RH WIND       PRES   REMARKS
CARBONDALE     CLOUDY    18   7  62 NE7       30.64S WCI   9
CAIRO*         CLOUDY    23  13  65 NE8       30.63R WCI  13
EFFINGHAM*     CLOUDY    11   0  59 NE3       30.68R
MARION         CLOUDY    19   9  63 NE6       30.65S WCI  11
MT. VERNON     CLOUDY    16   1  53 NE5       30.65S WCI   9
CENTRALIA*     CLOUDY    15   3  60 E3        30.65R
SALEM*         CLOUDY    15   4  61 CALM      30.66R
METROPOLIS*    CLOUDY    20  12  72 NE6       30.62S WCI  12
$$

ILZ067-068-072-073-078-083-087-091-281200-
SOUTHEAST ILLINOIS

CITY           SKY/WX    TMP DP  RH WIND       PRES   REMARKS
LAWRENCEVILLE  CLOUDY    14   3  61 NE6       30.69R WCI   5
FLORA*         CLOUDY    12   3  67 NE5       30.67R WCI   4
FAIRFIELD*     CLOUDY    15   6  68 NE3       30.65S
HARRISBURG*    CLOUDY    18   9  68 N6        30.67R WCI  10
ROBINSON*      CLOUDY    12   5  72 NE3       30.69R
CARMI*         CLOUDY    20  13  74 NE5       30.66R WCI  14
$$

ABBREVIATIONS USED IN REMARKS
   TC - TEMPERATURE IN CELSIUS
  WCI - WIND CHILL INDEX
   HX - HEAT INDEX
  VSB - VISIBILITY
$$



USA.gov is the U.S. government's official web portal to all federal, state and local government web resources and services.